Vorticity
-4 13 25 14 1 11 9 5 12 9 8 9 4 3 5 9 6 4 0 2 4 4 6 5 5 5 3 5 7 7 5 6 6
-6 -1 8 25 7 -4 4 5 13 6 8 7 3 1 1 -3 8 9 3 4 2 7 6 3 7 8 6 6 2 -2 -2 -0 2
33 -6 2 10 20 13 5 -0 14 27 8 2 9 11 6 1 -0 7 5 1 4 7 4 1 9 6 5 7 5 8 7 4 4
15 9 8 12 15 4 15 6 -9 12 13 9 7 3 4 7 4 -1 5 12 5 8 5 15 5 -1 -1 3 2 2 5 6 7
6 20 -4 -18 19 12 16 7 16 27 37 4 3 7 8 3 6 14 9 15 13 4 -9 22 28 21 11 15 8 11 3 5 5
8 13 21 23 9 8 13 12 -5 6 7 5 9 10 5 11 5 6 4 10 10 5 8 -1 16 3 5 18 12 14 8 12 -3
9 7 11 16 18 8 8 7 6 6 8 5 2 1 -0 5 6 4 5 10 5 2 -6 10 -10 -1 7 12 15 2 4 18 6
1 2 2 6 15 22 18 18 12 6 4 4 4 1 -4 8 4 7 9 4 4 -1 11 -4 -4 -1 17 19 22 20 1 19 16
1 3 3 4 4 2 18 13 22 24 24 24 28 4 1 11 7 11 13 9 7 2 1 1 5 8 -8 15 -4 -6 19 36 23
4 6 7 6 5 4 2 32 -3 2 7 5 6 6 19 7 9 8 8 13 12 15 7 13 7 5 8 13 8 9 8 8 9
5 4 5 5 5 5 6 -11 7 15 11 6 7 6 6 8 7 7 8 10 10 6 7 11 -3 6 9 1 2 12 8 8 7
4 4 5 6 7 7 7 8 0 -1 -9 4 5 3 41 12 5 1 5 -1 -5 2 2 -0 4 6 8 5 -3 7 -0 4 9
5 5 5 6 6 6 6 6 6 5 5 3 3 2 16 19 2 5 -4 9 -3 3 9 31 20 18 11 5 7 9 6 6 5
4 5 5 5 5 5 5 5 5 4 4 4 4 4 3 13 12 3 -1 2 7 6 7 5 4 4 4 4 5 5 5 5 4
4 4 6 6 5 6 5 5 5 4 5 4 5 5 4 3 4 7 7 4 6 5 5 5 7 6 6 7 7 7 7 6 4
4 4 6 5 5 5 5 5 5 5 5 5 5 6 7 5 4 4 3 3 3 3 4 4 3 4 4 4 4 5 5 5 6
4 4 6 5 4 4 4 5 6 6 6 6 6 7 7 7 7 7 6 6 6 6 5 5 5 6 5 4 4 4 4 4 4
4 5 6 5 4 4 4 5 7 6 7 6 6 7 7 8 7 8 9 9 9 8 9 9 9 9 9 8 8 8 7 6 5
5 5 6 5 5 4 6 7 7 6 5 5 5 5 5 4 5 6 5 5 5 5 5 5 5 5 5 5 6 6 7 7 8
5 5 5 5 5 5 7 6 5 5 5 5 5 5 5 5 5 4 5 5 5 5 5 5 6 6 5 6 5 6 6 5 5
Height
5831 5829 5830 5832 5837 5839 5842 5844 5847 5849 5850 5852 5854 5856 5859 5859 5861 5862 5864 5866 5866 5867 5869 5869 5869 5870 5871 5872 5873 5873 5874 5874 5874
5829 5828 5828 5830 5833 5836 5839 5841 5843 5845 5848 5850 5852 5854 5857 5857 5857 5859 5861 5863 5864 5865 5866 5866 5867 5868 5869 5870 5871 5872 5872 5873 5873
5829 5828 5829 5831 5831 5833 5835 5837 5839 5840 5844 5846 5848 5851 5853 5855 5856 5856 5857 5859 5861 5862 5864 5864 5864 5866 5867 5867 5868 5869 5870 5870 5871
5826 5826 5826 5827 5829 5830 5831 5833 5835 5837 5840 5842 5847 5850 5852 5853 5853 5854 5856 5857 5859 5860 5862 5862 5861 5862 5864 5865 5865 5866 5867 5868 5869
5826 5825 5824 5825 5826 5827 5828 5829 5831 5834 5837 5840 5844 5848 5849 5849 5851 5852 5854 5854 5856 5858 5858 5858 5858 5858 5860 5861 5862 5862 5863 5865 5866
5823 5823 5822 5823 5824 5825 5826 5827 5831 5832 5833 5838 5841 5844 5846 5847 5849 5850 5852 5853 5854 5855 5856 5855 5857 5857 5856 5856 5857 5858 5859 5860 5862
5823 5822 5821 5821 5822 5823 5824 5825 5827 5829 5832 5835 5838 5840 5843 5844 5846 5847 5848 5850 5850 5852 5852 5853 5853 5853 5853 5853 5853 5854 5855 5857 5858
5821 5822 5821 5821 5821 5822 5822 5823 5825 5827 5829 5831 5834 5836 5839 5840 5842 5843 5845 5846 5847 5848 5849 5851 5847 5850 5850 5850 5850 5850 5853 5853 5853
5820 5821 5821 5820 5821 5823 5823 5823 5824 5825 5826 5828 5831 5833 5835 5836 5838 5840 5841 5842 5843 5844 5845 5845 5845 5846 5847 5848 5848 5849 5849 5850 5850
5817 5819 5820 5820 5820 5821 5823 5823 5823 5824 5825 5827 5829 5830 5832 5833 5836 5837 5839 5839 5839 5840 5841 5842 5843 5845 5846 5845 5846 5845 5847 5848 5848
5814 5816 5817 5818 5819 5820 5821 5822 5822 5822 5824 5825 5826 5828 5829 5831 5833 5835 5836 5838 5839 5840 5840 5840 5841 5842 5844 5845 5845 5845 5845 5845 5845
5811 5813 5814 5815 5816 5817 5818 5819 5821 5821 5822 5823 5824 5825 5823 5826 5829 5831 5833 5835 5837 5837 5837 5839 5839 5840 5841 5842 5842 5842 5843 5842 5842
5807 5809 5811 5812 5813 5814 5815 5817 5818 5818 5819 5820 5821 5821 5821 5824 5826 5828 5830 5831 5832 5832 5833 5833 5834 5835 5836 5838 5838 5838 5839 5839 5839
5802 5805 5806 5807 5808 5810 5812 5814 5814 5815 5816 5817 5818 5818 5819 5820 5822 5824 5825 5826 5827 5828 5829 5829 5831 5832 5833 5833 5833 5833 5834 5835 5835
5796 5799 5802 5803 5804 5806 5807 5809 5809 5810 5812 5812 5814 5815 5815 5816 5817 5819 5820 5821 5822 5823 5823 5824 5826 5826 5826 5827 5827 5828 5829 5830 5830
5791 5793 5796 5797 5798 5800 5801 5804 5805 5806 5807 5808 5809 5810 5811 5811 5812 5814 5814 5815 5816 5817 5817 5819 5821 5820 5820 5820 5821 5822 5822 5822 5823
5785 5786 5789 5791 5792 5794 5795 5797 5798 5799 5800 5801 5803 5803 5806 5805 5807 5807 5808 5808 5809 5809 5810 5813 5814 5814 5813 5813 5814 5815 5815 5816 5816
5778 5779 5781 5784 5785 5787 5789 5790 5792 5792 5793 5794 5795 5796 5797 5798 5799 5800 5800 5801 5801 5801 5803 5804 5805 5805 5805 5805 5807 5806 5807 5807 5808
5770 5772 5774 5776 5778 5779 5781 5782 5784 5785 5786 5787 5788 5789 5790 5791 5792 5794 5794 5792 5793 5793 5795 5797 5797 5797 5796 5796 5797 5797 5798 5798 5799
5761 5763 5765 5767 5769 5771 5772 5774 5776 5777 5778 5779 5780 5780 5780 5781 5782 5784 5784 5783 5782 5785 5786 5787 5788 5788 5787 5786 5787 5788 5788 5789 5790